Voltar ao catálogo

COSMOS 2594

AtivoMilitarSSO
NORAD 65270·PAYLOAD·🇷🇺 Russia

Lançado Aug 21, 2025 de Plesetsk Cosmodrome

Loading…

Próximas Passagens (próximas 24 horas)

TLE

AtualizadoSource: Space-Track

Época: Sep 14, 2026, 22:04 UTC

1 65270U 25182D   26257.91955385  .00042828  25484-5  10466-3 0  9997
2 65270  96.5842 187.1030 0006215 120.9435 239.2456 15.96346427 62022

Acompanhe COSMOS 2594 em tempo real com AllMySat

Download on the App Store